STARLINK-32591, 61718

Orbit data source: Space-Track

STARLINK-32591, 61718 is a payload satellite owned by SpaceX/Seattle (US) in LEO that was launched on Wed, 30 Oct 2024 UTC via an FALCON 9 launch vehicle from the Air Force Eastern Test Range (AFETR). Payload-class satellites include a variety of spacecraft equipped with specific instruments for various scientific and technological missions. These include communications satellites like Starlink; space stations such as the ISS; scientific satellites like the Hubble; Earth observation satellites from companies like Planet Labs, Umbra, and HawkEye 360; GPS; miniature CubeSats for education and research; and military/defense satellites.

Loading next visibility...
Identifier
61718, 2024-196M
Orbit
LEO
Last TLE update
17 hours ago
Origin
Manufacturer
SpaceX/Seattle
Mission
Operational Commercial Communications
Bus & Motor
STARLINK V2M, Unknown motor
Mass
730 kg wet, ~700 kg dry
Launch date (UTC)
2024-10-30 (8 months ago)
Launch vehicle
FALCON 9
Launch site
Air Force Eastern Test Range (AFETR)
Object type
Payload
Rocket body
Debris
Shape & HBR
Box + 2 Pan, 29 m
Radar Cross Section
36.964 m², Large (>1 m²)

Expand to show TLE details & history

TLE from 17 hours ago
0 STARLINK-32591
1 61718U 24196M   25181.69953277 -.00000671  00000-0 -10529-4 0  9997
2 61718  53.1595 179.1411 0000984  81.9160 278.1952 15.30189246 38759
Epoch: 2025-06-30T16:47Z
TLE epoch observation values (Epoch: 2025-06-30T16:47:19.631Z)
Latitude
-0.00004°
Longitude
8.30369°
Altitude
476.051 km
Speed
7.629 km/s
True Right ascension
11h 56m 33s
True Declination
0° 00' 00"
Sunlit
Object was in daylight at epoch
Visualization orbit readout
Latitude
-47.3938°
Longitude
-120.83524°
Altitude
492.096 km
Speed
7.618 km/s
Apparent Right ascension
06h 20m 47s
Apparent Declination
-52° 50' 57"
Sunlit
Object is in daylight
Visualization observer readout
Local Sidereal Time
21:10:31
Azimuth
128.602° SE
Elevation
-58.572°
Doppler factor
1
Orbital elements
Apogee altitude
476.178 km
Perigee altitude
474.829 km
Semi-major axis
6,853.641 km
Eccentricity
0.0001
Inclination
53.1595°
RAAN
179.1411°
Arg. of periapsis
81.916°
True anomaly
Unknown
Mean anomaly
278.1952°
Eccentric anomaly
Unknown
Mean motion
3.82526 °/min
Orbital period
94.11 mins
BSTAR
-0.000010529
Loading maneuver chart data...
Loading SW <> Apogee altitude chart data...
Loading historical data...
Loading historical data...
Loading historical data...
Loading historical data...
Loading historical data...
Loading historical data...
Loading historical data...

STARLINK-32591 Visibility forecast

Observer location: undefined°, undefined°

Span
Click to sort rows by Start time (UTC) header in descending order
Start Az.
Max El. time (UTC)
Max El. Az.
Max El.
End time (UTC)
End Az.
4 mins2025-07-01 10:35:13.710Z272.398° WNW2025-07-01 10:37:13.710Z234.378° WSW18.773°2025-07-01 10:39:13.710Z193.743° SSW
5 mins2025-07-02 01:53:13.710Z198.103° SSW2025-07-02 01:55:13.710Z135.857° SSE35.743°2025-07-02 01:58:13.710Z63.59° ENE
5 mins2025-07-02 03:31:13.710Z285.281° WNW2025-07-02 03:33:13.710Z330.117° NNW23.504°2025-07-02 03:36:13.710Z28.822° NE
5 mins2025-07-02 08:28:13.710Z334.093° NNW2025-07-02 08:30:13.710Z35.129° NE33.493°2025-07-02 08:33:13.710Z103.38° ESE
|